KN4URY Weather Reports


Display with metric or nautical units.
time (UTC)temp
F
wind
direction
speed
MPH
gust
MPH
rain 1hr
in
rain 24hr
in
rain mn
in
humidity
%
barometer
mb
20260504020831 46 341 0.0 0.0 0.00 0.00 0.00 73 1016.0
20260504020330 46 341 0.0 0.0 0.00 0.00 0.00 74 1016.0
20260504015827 46 341 0.0 0.0 0.00 0.00 0.00 75 1015.9
20260504015325 46 341 0.0 0.0 0.00 0.00 0.00 77 1015.9
20260504014826 46 341 0.0 0.0 0.00 0.00 0.00 78 1015.8
20260504014324 46 341 0.0 0.0 0.00 0.00 0.00 76 1015.8
20260504013851 46 341 0.0 0.0 0.00 0.00 0.00 77 1015.8
20260504013352 46 341 0.0 0.0 0.00 0.00 0.00 75 1015.7
20260504012830 46 341 0.0 0.0 0.00 0.00 0.00 73 1015.6
20260504012330 46 341 0.0 0.0 0.00 0.00 0.00 74 1015.6
20260504011829 47 341 0.0 0.0 0.00 0.00 0.00 74 1015.5
20260504011330 47 341 0.0 0.0 0.00 0.00 0.00 72 1015.5
20260504010830 48 341 0.0 0.0 0.00 0.00 0.00 70 1015.5
20260504010330 49 341 0.0 0.0 0.00 0.00 0.00 67 1015.4
20260504005829 49 341 0.0 0.0 0.00 0.00 0.00 66 1015.3
20260504005329 49 341 0.0 0.0 0.00 0.00 0.00 64 1015.4
20260504004855 50 341 0.0 0.0 0.00 0.00 0.00 63 1015.4
20260504004333 51 341 0.0 0.0 0.00 0.00 0.00 62 1015.4
20260504003834 51 341 0.0 0.0 0.00 0.00 0.00 60 1015.4
20260504003333 52 341 0.0 0.0 0.00 0.00 0.00 59 1015.4
20260504002833 53 341 0.0 0.0 0.00 0.00 0.00 58 1015.3
20260504002332 54 341 0.0 0.0 0.00 0.00 0.00 58 1015.3
20260504001813 55 341 0.0 0.0 0.00 0.00 0.00 55 1015.3
20260504001316 56 341 0.0 2.0 0.00 0.00 0.00 53 1015.4
20260504000816 57 341 0.0 2.0 0.00 0.00 0.00 53 1015.2
20260504000316 58 341 0.0 0.0 0.00 0.00 0.00 51 1015.2
20260503235816 60 341 0.0 0.0 0.00 0.00 0.00 48 1015.1
20260503235316 61 341 0.0 0.0 0.00 0.00 0.00 46 1015.1
20260503234816 62 341 0.0 1.0 0.00 0.00 0.00 44 1015.1
20260503234315 64 341 0.0 1.0 0.00 0.00 0.00 39 1015.1
20260503233814 65 341 0.0 1.0 0.00 0.00 0.00 38 1015.0
20260503233356 66 341 0.0 1.0 0.00 0.00 0.00 38 1015.0
20260503232835 65 341 0.0 4.0 0.00 0.00 0.00 37 1014.9
20260503232312 65 341 0.0 4.0 0.00 0.00 0.00 34 1014.9
20260503231836 65 341 1.0 3.0 0.00 0.00 0.00 34 1015.0
20260503231336 66 341 1.0 3.0 0.00 0.00 0.00 34 1014.9
20260503230816 66 341 0.0 2.0 0.00 0.00 0.00 35 1014.8
20260503230314 66 341 0.0 3.0 0.00 0.00 0.00 36 1014.8
20260503225814 65 341 1.0 5.0 0.00 0.00 0.00 35 1014.9
20260503225316 65 341 2.0 5.0 0.00 0.00 0.00 33 1015.0
20260503224815 66 341 1.0 3.0 0.00 0.00 0.00 32 1015.0
20260503224336 66 341 0.0 4.0 0.00 0.00 0.00 32 1015.0
20260503223837 66 341 1.0 4.0 0.00 0.00 0.00 36 1015.1
20260503223336 67 341 1.0 4.0 0.00 0.00 0.00 33 1015.2
20260503222836 66 341 1.0 5.0 0.00 0.00 0.00 34 1015.1
20260503222336 65 341 1.0 7.0 0.00 0.00 0.00 32 1015.1
20260503221836 65 341 3.0 8.0 0.00 0.00 0.00 33 1015.1
20260503221336 66 341 3.0 8.0 0.00 0.00 0.00 33 1015.2
20260503220835 67 341 1.0 5.0 0.00 0.00 0.00 31 1015.3
20260503220333 67 341 1.0 5.0 0.00 0.00 0.00 32 1015.3
20260503215811 66 341 1.0 5.0 0.00 0.00 0.00 34 1015.3
20260503215314 66 341 1.0 4.0 0.00 0.00 0.00 34 1015.3
20260503214813 66 341 2.0 5.0 0.00 0.00 0.00 33 1015.3
20260503214336 66 341 2.0 5.0 0.00 0.00 0.00 32 1015.4
20260503213815 66 341 2.0 6.0 0.00 0.00 0.00 34 1015.2
20260503213315 66 341 1.0 7.0 0.00 0.00 0.00 33 1015.3
20260503212815 67 341 1.0 8.0 0.00 0.00 0.00 33 1015.3
20260503212314 66 341 2.0 8.0 0.00 0.00 0.00 34 1015.3
20260503211859 66 341 1.0 7.0 0.00 0.00 0.00 35 1015.4
20260503211337 66 341 3.0 7.0 0.00 0.00 0.00 32 1015.4
20260503210835 66 341 2.0 6.0 0.00 0.00 0.00 34 1015.4
20260503210332 67 341 2.0 8.0 0.00 0.00 0.00 32 1015.3
20260503205831 66 341 3.0 8.0 0.00 0.00 0.00 34 1015.4
20260503205327 66 341 3.0 6.0 0.00 0.00 0.00 35 1015.3
20260503204852 66 341 1.0 9.0 0.00 0.00 0.00 33 1015.4
20260503204311 66 341 4.0 9.0 0.00 0.00 0.00 33 1015.4
20260503203835 67 341 1.0 4.0 0.00 0.00 0.00 33 1015.4
20260503203333 66 341 1.0 6.0 0.00 0.00 0.00 32 1015.4
20260503202834 66 341 2.0 6.0 0.00 0.00 0.00 35 1015.3
20260503202338 67 341 2.0 5.0 0.00 0.00 0.00 33 1015.4
20260503201837 66 341 1.0 6.0 0.00 0.00 0.00 35 1015.3
20260503201334 65 341 2.0 10.0 0.00 0.00 0.00 37 1015.5
20260503200814 65 341 4.0 10.0 0.00 0.00 0.00 34 1015.5
20260503200335 65 341 4.0 9.0 0.00 0.00 0.00 34 1015.4
20260503195834 65 341 2.0 11.0 0.00 0.00 0.00 34 1015.6
20260503195312 65 341 4.0 11.0 0.00 0.00 0.00 34 1015.9
20260503194812 65 341 3.0 8.0 0.00 0.00 0.00 32 1015.9
20260503194339 65 341 1.0 6.0 0.00 0.00 0.00 34 1015.9
20260503193845 64 341 4.0 9.0 0.00 0.00 0.00 33 1015.9
20260503193322 64 341 4.0 9.0 0.00 0.00 0.00 35 1016.1
20260503192823 64 341 1.0 8.0 0.00 0.00 0.00 40 1016.1
20260503192323 63 341 4.0 9.0 0.00 0.00 0.00 38 1016.2
20260503191849 63 341 2.0 11.0 0.00 0.00 0.00 38 1016.2
20260503191323 63 341 3.0 11.0 0.00 0.00 0.00 36 1016.3
20260503190824 64 341 3.0 7.0 0.00 0.00 0.00 34 1016.3
20260503190320 63 341 2.0 5.0 0.00 0.00 0.00 37 1016.4
20260503185818 62 341 2.0 12.0 0.00 0.00 0.00 37 1016.6
20260503185316 63 341 5.0 12.0 0.00 0.00 0.00 35 1016.7
20260503184815 62 341 2.0 10.0 0.00 0.00 0.00 41 1016.5
20260503184315 62 341 2.0 8.0 0.00 0.00 0.00 37 1016.6
20260503183816 62 341 2.0 9.0 0.00 0.00 0.00 37 1016.8
20260503183315 62 341 3.0 10.0 0.00 0.00 0.00 36 1016.9
20260503182814 62 341 3.0 9.0 0.00 0.00 0.00 38 1016.9
20260503182315 62 341 3.0 10.0 0.00 0.00 0.00 38 1016.9
20260503181813 61 341 4.0 12.0 0.00 0.00 0.00 38 1017.1
20260503181333 61 341 3.0 12.0 0.00 0.00 0.00 38 1017.0
20260503180833 63 341 3.0 8.0 0.00 0.00 0.00 37 1016.9
20260503180330 61 341 2.0 8.0 0.00 0.00 0.00 38 1017.1
20260503175828 60 341 2.0 8.0 0.00 0.00 0.00 40 1017.2
20260503175327 60 341 4.0 11.0 0.00 0.00 0.00 40 1017.2
20260503174852 60 341 5.0 13.0 0.00 0.00 0.00 40 1017.2
20260503174331 60 341 4.0 13.0 0.00 0.00 0.00 38 1017.3
20260503173831 61 341 2.0 6.0 0.00 0.00 0.00 38 1017.3
20260503173330 62 341 2.0 8.0 0.00 0.00 0.00 38 1017.3
20260503172856 61 341 2.0 10.0 0.00 0.00 0.00 38 1017.4
20260503172333 62 341 3.0 10.0 0.00 0.00 0.00 40 1017.3
20260503171830 62 341 2.0 7.0 0.00 0.00 0.00 40 1017.5
20260503171329 61 341 2.0 7.0 0.00 0.00 0.00 40 1017.5
20260503170830 61 341 3.0 6.0 0.00 0.00 0.00 41 1017.6
20260503170329 60 341 2.0 6.0 0.00 0.00 0.00 42 1017.6
20260503150819 55 341 1.0 9.0 0.00 0.00 0.00 48 1018.5
20260503150319 55 341 4.0 9.0 0.00 0.00 0.00 48 1018.5
20260503131335 48 341 3.0 9.0 0.00 0.00 0.00 59 1018.3
20260503130833 48 341 2.0 8.0 0.00 0.00 0.00 60 1018.4
20260503130311 47 341 4.0 8.0 0.00 0.00 0.00 60 1018.3
20260503110335 41 341 0.0 1.0 0.00 0.00 0.00 77 1017.0
20260503090318 42 341 0.0 1.0 0.00 0.00 0.00 84 1015.2
20260503081316 44 341 0.0 1.0 0.00 0.00 0.00 82 1014.7
20260503080843 44 341 0.0 1.0 0.00 0.00 0.00 81 1014.7
20260503080321 45 341 0.0 1.0 0.00 0.00 0.00 81 1014.6
20260503072822 46 341 0.0 1.0 0.00 0.00 0.00 80 1014.3
20260503072318 47 341 0.0 1.0 0.00 0.00 0.00 80 1014.3
20260503071818 47 341 0.0 1.0 0.00 0.00 0.00 80 1014.3
20260503071343 47 341 0.0 2.0 0.00 0.00 0.00 80 1014.2
20260503070821 47 341 0.0 3.0 0.00 0.00 0.00 79 1014.2
20260503070322 48 341 0.0 3.0 0.00 0.00 0.00 79 1014.0
20260503060314 49 341 0.0 2.0 0.00 0.00 0.00 77 1013.7
20260503054819 49 341 0.0 4.0 0.00 0.00 0.00 77 1013.7
20260503054319 49 341 1.0 3.0 0.00 0.00 0.00 77 1013.6
20260503053844 49 341 0.0 2.0 0.00 0.00 0.00 78 1013.7
20260503053317 49 341 0.0 2.0 0.00 0.00 0.00 78 1013.5
20260503052818 48 341 0.0 1.0 0.00 0.00 0.00 78 1013.5
20260503052316 48 341 0.0 1.0 0.00 0.00 0.00 80 1013.4
20260503051815 48 341 0.0 2.0 0.00 0.00 0.00 81 1013.5
20260503051314 48 341 0.0 2.0 0.00 0.00 0.00 83 1013.4
20260503050841 48 341 0.0 0.0 0.00 0.00 0.00 85 1013.3
20260503050320 48 341 0.0 0.0 0.00 0.00 0.00 84 1013.2
20260503045819 48 341 0.0 0.0 0.00 0.00 0.00 83 1013.2
20260503045319 48 341 0.0 0.0 0.00 0.00 0.00 81 1013.2
20260503044820 49 341 0.0 0.0 0.00 0.00 0.00 80 1013.1
20260503044312 49 341 0.0 0.0 0.00 0.00 0.00 79 1013.2
20260503043836 49 341 0.0 1.0 0.00 0.00 0.00 79 1013.2
20260503043316 49 341 0.0 1.0 0.00 0.00 0.00 78 1013.2
20260503042815 48 341 0.0 2.0 0.00 0.00 0.00 79 1013.3
20260503042315 48 341 0.0 3.0 0.00 0.00 0.00 80 1013.1
20260503041840 48 341 1.0 3.0 0.00 0.00 0.00 80 1013.2
20260503041322 48 341 0.0 0.0 0.00 0.00 0.00 79 1013.2
20260503040824 48 341 0.0 1.0 0.00 0.00 0.00 77 1013.1
20260503040320 48 341 0.0 2.0 0.00 0.00 0.00 76 1013.0
20260503035820 48 341 1.0 2.0 0.00 0.00 0.00 74 1013.1
20260503035346 49 341 0.0 1.0 0.00 0.00 0.00 72 1013.0
20260503034820 49 341 0.0 1.0 0.00 0.00 0.00 72 1013.0
20260503034346 49 341 0.0 1.0 0.00 0.00 0.00 74 1013.0
20260503033826 49 341 0.0 1.0 0.00 0.00 0.00 75 1013.0
20260503033325 49 341 0.0 1.0 0.00 0.00 0.00 77 1012.9
20260503032824 49 341 0.0 1.0 0.00 0.00 0.00 77 1012.8
20260503032326 50 341 0.0 1.0 0.00 0.00 0.00 75 1012.7
20260503031852 50 341 0.0 1.0 0.00 0.00 0.00 74 1012.8
20260503031329 50 341 0.0 1.0 0.00 0.00 0.00 75 1012.8
20260503030827 50 341 0.0 1.0 0.00 0.00 0.00 76 1012.9
20260503030326 49 341 0.0 2.0 0.00 0.00 0.00 76 1012.9
20260503025825 49 341 0.0 2.0 0.00 0.00 0.00 78 1013.0
20260503025313 48 341 0.0 1.0 0.00 0.00 0.00 80 1013.0
20260503024812 48 341 0.0 1.0 0.00 0.00 0.00 81 1013.1
20260503024339 48 341 0.0 1.0 0.00 0.00 0.00 81 1012.9
20260503023844 48 341 0.0 1.0 0.00 0.00 0.00 83 1013.1
20260503023323 48 341 0.0 0.0 0.00 0.00 0.00 84 1013.0
20260503022823 48 341 0.0 0.0 0.00 0.00 0.00 85 1013.0
20260503022349 48 341 0.0 0.0 0.00 0.00 0.00 84 1013.0
20260503021828 48 341 0.0 0.0 0.00 0.00 0.00 84 1012.8
20260503021327 48 341 0.0 0.0 0.00 0.00 0.00 84 1012.8